Погода в Новинках

Россия / Нижегородская область     56°12′17″N   43°52′47″E
темп.,
°C
ветер,
м/с
пор.,
м/с
влажн.,
%
обл.,
%
осадки,
мм/ч
давл.,
гПа
погр.,
м
24 мая, вт
вт2400:00+3з4882100 0.0 1001658
03:00+2з4898100 0.9 1002364
06:00+2зсз3799100 0.4 1002426
09:00+2ссз238791 1.0 1003567
12:00+5зсз3375100 0.7 10041163
15:00+6сз345897 1.2 10061363
18:00+6ссз445563 0.1 10071113
21:00+3сз2572100 0.1 1008231
25 мая, ср
ср2500:00+2сз2485100 0.1 1009163
03:00+1сз259216 0.1 1010164
06:00+3зсз358848 0.0 1011319
09:00+7сз456340 0.0 10111149
12:00+10зсз4644100 0.1 10112147
15:00+7зсз5982100 0.7 10121230
18:00+6сз499160 0.4 1013690
21:00+5зсз1194100 0.4 101312
26 мая, чт
чт2600:00+4юз249383 0.0 101283
03:00+4юз388799 0.1 1012218
06:00+5юз3779100 0.0 1011227
09:00+10зюз565815 0.0 10101252
12:00+12юз565897 0.3 10101484
15:00+11зюз4768100 0.4 1010824
18:00+13ююз355919 0.0 10081065
21:00+9ююв31077100 0.0 1006240
27 мая, пт
пт2700:00+9ю41184100 0.0 1004306
03:00+9ююв3996100 0.9 1002263
06:00+9в3699100 4.0 999235
09:00+10юв2697100 6.1 997440
12:00+10з2498100 0.8 998296
15:00+10зсз4995100 2.0 1000480
18:00+12з37886 0.0 1001563
21:00+9юз39965 0.3 1003231
28 мая, сб
сб2800:00+8юз399652 0.0 1004210
03:00+8ююз389698 0.0 1004178
06:00+9ю41291100 0.1 1002412
09:00+11ю81791100 2.9 1000937
12:00+12юз71395100 4.1 10011106
15:00+14зюз711765 5.4 10021333
18:00+15юз511594 0.3 10041342
21:00+10юз398059 0.3 1007178